WWA215 KMSP-KGRR

Flight info

Callsign WWA215
Flight time 1h 4m
Altitude 35000
Route COULT7 DLL J34 ADALE
Aircraft B738/M-SDE2E3FGHIRWXY/LB1

Departure

Time 2026-04-30 21:03
Airport Minneapolis–Saint Paul International Airport / Wold–Chamberlain Field (KMSP)

Arrival

Time 2026-04-30 22:07
Airport Gerald R. Ford International Airport (KGRR)
Time Latitude Longitude Altitude Speed Heading
2026-04-30 20:49 44.88275 -93.23391 849 ft 0 kts 35°
2026-04-30 20:52 44.88253 -93.23412 849 ft 3 kts 35°
2026-04-30 20:53 44.88237 -93.23429 849 ft 3 kts 35°
2026-04-30 20:53 44.88220 -93.23445 849 ft 3 kts 35°
2026-04-30 20:53 44.88204 -93.23462 849 ft 3 kts 35°
2026-04-30 20:54 44.88198 -93.23467 849 ft 0 kts 35°
2026-04-30 20:55 44.88199 -93.23466 849 ft 1 kts 33°
2026-04-30 20:55 44.88204 -93.23439 849 ft 5 kts 106°
2026-04-30 20:56 44.88134 -93.23288 849 ft 12 kts 123°
2026-04-30 20:56 44.88087 -93.23189 849 ft 12 kts 123°
2026-04-30 20:56 44.87991 -93.22978 849 ft 19 kts 127°
2026-04-30 20:57 44.87889 -93.22808 849 ft 23 kts 130°
2026-04-30 20:57 44.87791 -93.22647 849 ft 16 kts 103°
2026-04-30 20:57 44.87816 -93.22555 849 ft 9 kts 29°
2026-04-30 20:58 44.88020 -93.22325 849 ft 23 kts 43°
2026-04-30 20:58 44.88081 -93.22161 849 ft 18 kts 112°
2026-04-30 20:58 44.88022 -93.22009 849 ft 16 kts 121°
2026-04-30 20:58 44.87963 -93.21874 849 ft 16 kts 121°
2026-04-30 20:59 44.87850 -93.21609 849 ft 16 kts 120°
2026-04-30 20:59 44.87783 -93.21447 849 ft 21 kts 121°
2026-04-30 21:00 44.87602 -93.21045 849 ft 26 kts 131°
2026-04-30 21:00 44.87374 -93.20717 849 ft 23 kts 121°
2026-04-30 21:01 44.87214 -93.20347 849 ft 21 kts 114°
2026-04-30 21:01 44.87258 -93.20236 849 ft 13 kts 31°
2026-04-30 21:01 44.87371 -93.20157 849 ft 1 kts 326°
2026-04-30 21:02 44.87376 -93.20169 849 ft 3 kts 301°
2026-04-30 21:02 44.87421 -93.20274 849 ft 36 kts 301°
2026-04-30 21:02 44.87687 -93.20896 850 ft 111 kts 303°
2026-04-30 21:02 44.88194 -93.22022 1143 ft 148 kts 304°
2026-04-30 21:03 44.88704 -93.23188 1780 ft 163 kts 303°
2026-04-30 21:03 44.89247 -93.24539 2789 ft 157 kts 300°
2026-04-30 21:03 44.89671 -93.26004 3458 ft 167 kts 290°
2026-04-30 21:03 44.89880 -93.27615 4242 ft 169 kts 277°
2026-04-30 21:04 44.89808 -93.29286 4977 ft 174 kts 264°
2026-04-30 21:04 44.89427 -93.30928 5721 ft 180 kts 249°
2026-04-30 21:04 44.87760 -93.33628 7214 ft 191 kts 218°
2026-04-30 21:05 44.86536 -93.34495 7829 ft 209 kts 204°
2026-04-30 21:05 44.85037 -93.34996 8271 ft 236 kts 190°
2026-04-30 21:05 44.83315 -93.35012 8809 ft 258 kts 175°
2026-04-30 21:05 44.81580 -93.34389 9797 ft 260 kts 159°
2026-04-30 21:06 44.79991 -93.33106 10621 ft 273 kts 142°
2026-04-30 21:06 44.78597 -93.31129 11113 ft 299 kts 126°
2026-04-30 21:06 44.77466 -93.28555 11687 ft 322 kts 115°
2026-04-30 21:06 44.76486 -93.25603 12218 ft 346 kts 111°
2026-04-30 21:07 44.75590 -93.22353 12730 ft 366 kts 105°
2026-04-30 21:07 44.75005 -93.18875 13712 ft 366 kts 96°
2026-04-30 21:07 44.74759 -93.15311 14655 ft 369 kts 90°
2026-04-30 21:07 44.74706 -93.11688 15502 ft 373 kts 87°
2026-04-30 21:08 44.74677 -93.08031 16329 ft 377 kts 88°
2026-04-30 21:08 44.74577 -93.04329 17112 ft 382 kts 90°
2026-04-30 21:08 44.74389 -93.00623 18023 ft 379 kts 91°
2026-04-30 21:08 44.74142 -92.96986 19099 ft 371 kts 92°
2026-04-30 21:09 44.73877 -92.93444 20255 ft 358 kts 92°
2026-04-30 21:09 44.73618 -92.90057 21537 ft 339 kts 91°
2026-04-30 21:09 44.73379 -92.86884 22895 ft 315 kts 90°
2026-04-30 21:09 44.73144 -92.83976 24273 ft 287 kts 95°
2026-04-30 21:10 44.72943 -92.81309 25293 ft 263 kts 94°
2026-04-30 21:10 44.72749 -92.78775 25845 ft 265 kts 94°
2026-04-30 21:10 44.72545 -92.76110 26018 ft 284 kts 94°
2026-04-30 21:10 44.72325 -92.73278 26273 ft 300 kts 95°
2026-04-30 21:11 44.72086 -92.70284 26525 ft 318 kts 95°
2026-04-30 21:11 44.71817 -92.67113 26775 ft 337 kts 96°
2026-04-30 21:11 44.71497 -92.63768 27022 ft 355 kts 96°
2026-04-30 21:11 44.71175 -92.60245 27265 ft 373 kts 95°
2026-04-30 21:12 44.70877 -92.56548 27501 ft 391 kts 95°
2026-04-30 21:12 44.70565 -92.52667 27735 ft 409 kts 96°
2026-04-30 21:12 44.69982 -92.48680 27968 ft 427 kts 105°
2026-04-30 21:12 44.68803 -92.44786 28172 ft 444 kts 120°
2026-04-30 21:13 44.66955 -92.41245 28362 ft 458 kts 132°
2026-04-30 21:13 44.64696 -92.38016 28542 ft 471 kts 137°
2026-04-30 21:13 44.62359 -92.34721 28730 ft 483 kts 134°
2026-04-30 21:13 44.60283 -92.31007 29242 ft 486 kts 124°
2026-04-30 21:14 44.58649 -92.26869 29885 ft 486 kts 117°
2026-04-30 21:14 44.57163 -92.22629 30453 ft 485 kts 118°
2026-04-30 21:14 44.55455 -92.18574 31034 ft 483 kts 126°
2026-04-30 21:14 44.53421 -92.14870 31573 ft 480 kts 133°
2026-04-30 21:15 44.51181 -92.11415 32068 ft 480 kts 135°
2026-04-30 21:15 44.48934 -92.07957 32425 ft 484 kts 133°
2026-04-30 21:15 44.46823 -92.04286 32850 ft 486 kts 129°
2026-04-30 21:15 44.44882 -92.00392 33126 ft 492 kts 125°
2026-04-30 21:16 44.43025 -91.96408 33691 ft 487 kts 125°
2026-04-30 21:16 44.41111 -91.92527 34152 ft 486 kts 128°
2026-04-30 21:16 44.39065 -91.88786 34536 ft 485 kts 130°
2026-04-30 21:16 44.37052 -91.85003 34905 ft 488 kts 126°
2026-04-30 21:17 44.33594 -91.76705 35051 ft 504 kts 118°
2026-04-30 21:17 44.30464 -91.67897 35071 ft 506 kts 117°
2026-04-30 21:18 44.27275 -91.59229 35065 ft 504 kts 119°
2026-04-30 21:18 44.23977 -91.50527 35064 ft 511 kts 119°
2026-04-30 21:19 44.20665 -91.41881 35062 ft 504 kts 120°
2026-04-30 21:19 44.17290 -91.33291 35059 ft 510 kts 120°
2026-04-30 21:20 44.13929 -91.24672 35056 ft 504 kts 120°
2026-04-30 21:20 44.10599 -91.16115 35048 ft 508 kts 120°
2026-04-30 21:21 44.07240 -91.07466 35044 ft 507 kts 120°
2026-04-30 21:22 44.02252 -90.94592 35040 ft 509 kts 120°
2026-04-30 21:23 43.95571 -90.77419 35029 ft 508 kts 120°
2026-04-30 21:23 43.90490 -90.64587 35026 ft 506 kts 121°
2026-04-30 21:24 43.87103 -90.56031 35025 ft 509 kts 120°
2026-04-30 21:24 43.83713 -90.47498 35022 ft 505 kts 120°
2026-04-30 21:25 43.78605 -90.34675 35017 ft 508 kts 120°
2026-04-30 21:26 43.73497 -90.21952 35017 ft 512 kts 120°
2026-04-30 21:27 43.68287 -90.09048 35023 ft 510 kts 121°
2026-04-30 21:27 43.64851 -90.00534 35027 ft 512 kts 121°
2026-04-30 21:28 43.59647 -89.87647 35031 ft 511 kts 121°
2026-04-30 21:29 43.54561 -89.74683 35030 ft 517 kts 116°
2026-04-30 21:30 43.48128 -89.51707 35032 ft 515 kts 112°
2026-04-30 21:31 43.41371 -89.28893 35040 ft 513 kts 112°
2026-04-30 21:32 43.37384 -89.15284 35061 ft 513 kts 112°
2026-04-30 21:32 43.34769 -89.06199 35065 ft 511 kts 112°
2026-04-30 21:33 43.30846 -88.92772 35076 ft 507 kts 112°
2026-04-30 21:34 43.28228 -88.83745 35085 ft 511 kts 112°
2026-04-30 21:34 43.24283 -88.70414 35103 ft 502 kts 112°
2026-04-30 21:35 43.21632 -88.61533 35104 ft 504 kts 112°
2026-04-30 21:35 43.18977 -88.52672 35090 ft 507 kts 113°
2026-04-30 21:36 43.16264 -88.43653 35072 ft 515 kts 112°
2026-04-30 21:37 43.11385 -88.25542 34898 ft 516 kts 102°
2026-04-30 21:37 43.10732 -88.20680 34369 ft 525 kts 97°
2026-04-30 21:37 43.10249 -88.15755 33659 ft 521 kts 96°
2026-04-30 21:38 43.09799 -88.10871 32910 ft 517 kts 96°
2026-04-30 21:38 43.09317 -88.06028 32162 ft 514 kts 97°
2026-04-30 21:38 43.08805 -88.01222 31414 ft 511 kts 97°
2026-04-30 21:38 43.08266 -87.96441 30664 ft 508 kts 98°
2026-04-30 21:39 43.07742 -87.91708 29934 ft 502 kts 96°
2026-04-30 21:39 43.07246 -87.87041 29235 ft 493 kts 96°
2026-04-30 21:39 43.06748 -87.82450 28546 ft 485 kts 97°
2026-04-30 21:39 43.06236 -87.77949 27922 ft 477 kts 97°
2026-04-30 21:40 43.05723 -87.73523 27297 ft 469 kts 97°
2026-04-30 21:40 43.05227 -87.69153 26671 ft 462 kts 97°
2026-04-30 21:40 43.04746 -87.64846 26056 ft 457 kts 97°
2026-04-30 21:40 43.04269 -87.60582 25483 ft 454 kts 97°
2026-04-30 21:41 43.03792 -87.56347 24908 ft 450 kts 97°
2026-04-30 21:41 43.03321 -87.52161 24334 ft 446 kts 97°
2026-04-30 21:41 43.02856 -87.48002 23759 ft 441 kts 97°
2026-04-30 21:41 43.02398 -87.43886 23184 ft 437 kts 97°
2026-04-30 21:42 43.01948 -87.39814 22633 ft 432 kts 97°
2026-04-30 21:42 43.01501 -87.35789 22210 ft 429 kts 97°
2026-04-30 21:42 43.01036 -87.31787 21748 ft 427 kts 98°
2026-04-30 21:42 43.00551 -87.27817 21248 ft 422 kts 98°
2026-04-30 21:43 43.00065 -87.23898 20785 ft 418 kts 98°
2026-04-30 21:43 42.99595 -87.20008 20384 ft 415 kts 98°
2026-04-30 21:43 42.99153 -87.16134 19984 ft 412 kts 97°
2026-04-30 21:43 42.98733 -87.12288 19585 ft 409 kts 97°
2026-04-30 21:44 42.98298 -87.08473 19185 ft 406 kts 98°
2026-04-30 21:44 42.97844 -87.04691 18785 ft 403 kts 98°
2026-04-30 21:44 42.97380 -87.00948 18386 ft 398 kts 96°
2026-04-30 21:44 42.96917 -86.97257 17981 ft 393 kts 96°
2026-04-30 21:45 42.96498 -86.93601 17482 ft 390 kts 96°
2026-04-30 21:45 42.96117 -86.89949 16951 ft 388 kts 96°
2026-04-30 21:45 42.95732 -86.86334 16637 ft 385 kts 97°
2026-04-30 21:45 42.95321 -86.82733 16337 ft 385 kts 97°
2026-04-30 21:46 42.94896 -86.79144 15978 ft 384 kts 98°
2026-04-30 21:46 42.94471 -86.75588 15580 ft 380 kts 98°
2026-04-30 21:46 42.94052 -86.72034 15179 ft 377 kts 97°
2026-04-30 21:46 42.93643 -86.68517 14779 ft 375 kts 98°
2026-04-30 21:47 42.93240 -86.65034 14379 ft 372 kts 97°
2026-04-30 21:47 42.92835 -86.61574 13980 ft 369 kts 98°
2026-04-30 21:47 42.92434 -86.58138 13580 ft 366 kts 98°
2026-04-30 21:47 42.92041 -86.54735 13180 ft 363 kts 98°
2026-04-30 21:48 42.91636 -86.51360 12780 ft 360 kts 99°
2026-04-30 21:48 42.91196 -86.48021 12380 ft 358 kts 99°
2026-04-30 21:48 42.90749 -86.44695 11929 ft 356 kts 99°
2026-04-30 21:48 42.90321 -86.41403 11514 ft 351 kts 99°
2026-04-30 21:49 42.89906 -86.38135 11239 ft 350 kts 99°
2026-04-30 21:49 42.89494 -86.34881 10964 ft 348 kts 99°
2026-04-30 21:49 42.89087 -86.31652 10688 ft 342 kts 99°
2026-04-30 21:49 42.88677 -86.28513 10411 ft 333 kts 98°
2026-04-30 21:50 42.88281 -86.25453 10135 ft 325 kts 98°
2026-04-30 21:50 42.87906 -86.22466 9842 ft 314 kts 98°
2026-04-30 21:50 42.87549 -86.19589 9564 ft 304 kts 98°
2026-04-30 21:50 42.87200 -86.16802 9287 ft 296 kts 98°
2026-04-30 21:51 42.86858 -86.14068 9011 ft 291 kts 98°
2026-04-30 21:51 42.86523 -86.11360 8749 ft 290 kts 98°
2026-04-30 21:51 42.86192 -86.08671 8474 ft 287 kts 98°
2026-04-30 21:51 42.85905 -86.05986 8202 ft 290 kts 94°
2026-04-30 21:52 42.85832 -86.03231 7929 ft 293 kts 86°
2026-04-30 21:52 42.85996 -86.00486 7655 ft 290 kts 81°
2026-04-30 21:52 42.86298 -85.97774 7385 ft 296 kts 78°
2026-04-30 21:52 42.86674 -85.94957 7113 ft 304 kts 77°
2026-04-30 21:53 42.87105 -85.92186 6837 ft 297 kts 74°
2026-04-30 21:53 42.87656 -85.89519 6561 ft 290 kts 70°
2026-04-30 21:53 42.88297 -85.86948 6286 ft 284 kts 68°
2026-04-30 21:53 42.88973 -85.84445 6010 ft 280 kts 67°
2026-04-30 21:54 42.89654 -85.81988 5735 ft 276 kts 67°
2026-04-30 21:54 42.90326 -85.79565 5460 ft 272 kts 67°
2026-04-30 21:54 42.90986 -85.77165 5185 ft 270 kts 67°
2026-04-30 21:54 42.91637 -85.74770 4910 ft 270 kts 67°
2026-04-30 21:55 42.92284 -85.72379 4635 ft 269 kts 67°
2026-04-30 21:55 42.92929 -85.70001 4361 ft 268 kts 67°
2026-04-30 21:55 42.93569 -85.67637 4087 ft 267 kts 67°
2026-04-30 21:55 42.94214 -85.65260 3811 ft 266 kts 67°
2026-04-30 21:56 42.94855 -85.62900 3536 ft 265 kts 67°
2026-04-30 21:56 42.95496 -85.60550 3261 ft 265 kts 67°
2026-04-30 21:56 42.96134 -85.58207 3033 ft 263 kts 67°
2026-04-30 21:56 42.96772 -85.55872 3006 ft 263 kts 67°
2026-04-30 21:57 42.97407 -85.53532 3005 ft 264 kts 68°
2026-04-30 21:57 42.97966 -85.51146 3004 ft 264 kts 72°
2026-04-30 21:57 42.98407 -85.48713 3005 ft 265 kts 75°
2026-04-30 21:57 42.98773 -85.46260 3001 ft 261 kts 77°
2026-04-30 21:58 42.99096 -85.43893 2934 ft 249 kts 77°
2026-04-30 21:58 42.99402 -85.41604 2805 ft 241 kts 77°
2026-04-30 21:58 42.99697 -85.39391 2700 ft 233 kts 77°
2026-04-30 21:58 42.99980 -85.37256 2718 ft 226 kts 77°
2026-04-30 21:59 43.00255 -85.35169 2726 ft 224 kts 77°
2026-04-30 21:59 43.00528 -85.33105 2702 ft 215 kts 77°
2026-04-30 21:59 43.00779 -85.31167 2687 ft 201 kts 77°
2026-04-30 22:00 43.01176 -85.27490 2705 ft 195 kts 83°
2026-04-30 22:00 43.00913 -85.23799 2696 ft 198 kts 103°
2026-04-30 22:00 43.00393 -85.22069 2689 ft 198 kts 120°
2026-04-30 22:01 42.99459 -85.20714 2693 ft 197 kts 146°
2026-04-30 22:01 42.98205 -85.20042 2718 ft 193 kts 172°
2026-04-30 22:01 42.96914 -85.20046 2736 ft 188 kts 194°
2026-04-30 22:01 42.95691 -85.20655 2901 ft 190 kts 208°
2026-04-30 22:02 42.94463 -85.21417 2943 ft 197 kts 209°
2026-04-30 22:02 42.93202 -85.22248 2933 ft 204 kts 210°
2026-04-30 22:02 42.91942 -85.23156 2827 ft 203 kts 216°
2026-04-30 22:02 42.91012 -85.24422 2815 ft 180 kts 246°
2026-04-30 22:03 42.90829 -85.26026 2752 ft 168 kts 271°
2026-04-30 22:03 42.90706 -85.27615 2720 ft 165 kts 265°
2026-04-30 22:03 42.90540 -85.29167 2839 ft 166 kts 264°
2026-04-30 22:03 42.90319 -85.30743 2898 ft 172 kts 261°
2026-04-30 22:04 42.90057 -85.32357 2851 ft 181 kts 261°
2026-04-30 22:04 42.89769 -85.34033 2738 ft 182 kts 260°
2026-04-30 22:04 42.89411 -85.37293 2671 ft 168 kts 268°
2026-04-30 22:05 42.89298 -85.38810 2529 ft 157 kts 266°
2026-04-30 22:05 42.89168 -85.40250 2340 ft 150 kts 266°
2026-04-30 22:05 42.89063 -85.41645 2038 ft 144 kts 265°
2026-04-30 22:05 42.88954 -85.42902 1966 ft 132 kts 262°
2026-04-30 22:06 42.88809 -85.44160 1823 ft 137 kts 261°
2026-04-30 22:06 42.88496 -85.46743 1445 ft 140 kts 260°
2026-04-30 22:06 42.88345 -85.48042 1204 ft 141 kts 262°
2026-04-30 22:07 42.88222 -85.49328 1017 ft 134 kts 262°
2026-04-30 22:07 42.88078 -85.50577 839 ft 134 kts 261°
2026-04-30 22:07 42.87942 -85.51743 803 ft 106 kts 260°
2026-04-30 22:07 42.87863 -85.52462 802 ft 46 kts 263°
2026-04-30 22:08 42.87853 -85.52683 802 ft 12 kts 276°